Hourly Data Report for October 05, 2017

All times are specified in Local Standard Time (LST). Add 1 hour to adjust for Daylight Saving Time where and when it is observed.

PENTICTON A
BRITISH COLUMBIA

49°27'45.000" N
119°36'08.000" W
344.40 m
1126146
71889
YYF

Download Data

Hourly Data (October 2017)
Hourly Data Report for October 5, 2017
Temp Definition
°C
Dew Point Temp Definition
°C
Rel Hum Definition
%
Wind Dir Definition
10's deg

Wind Spd Definition
km/h
Visibility Definition
km
Stn Press Definition
kPa
Hmdx Definition


Wind Chill Definition


Weather Definition


TIME
00:00 Legend Double Dagger 4.7 -2.5 60 1 14 24.1 98.20     LegendNANA
01:00 Legend Double Dagger 4.1 -2.7 61 1 10 24.1 98.22     Mostly Cloudy
02:00 Legend Double Dagger 2.6 -1.9 72 36 1 24.1 98.25     LegendNANA
03:00 Legend Double Dagger 1.8 -2.2 75 4 3 24.1 98.24     LegendNANA
04:00 Legend Double Dagger 2.1 -2.8 70 2 5 24.1 98.27     Mainly Clear
05:00 Legend Double Dagger 1.9 -3.0 70 1 9 24.1 98.27     LegendNANA
06:00 Legend Double Dagger 2.5 -2.8 68 36 13 24.1 98.31     LegendNANA
07:00 Legend Double Dagger 1.0 -2.8 75 3 4 24.1 98.32     Mainly Clear
08:00 Legend Double Dagger 8.6 -0.1 54 4 7 24.1 98.30     LegendNANA
09:00 Legend Double Dagger 10.8 3.0 58 1 9 24.1 98.27     LegendNANA
10:00 Legend Double Dagger 12.1 1.6 48 34 4 24.1 98.21     Mainly Clear
11:00 Legend Double Dagger 14.0 1.6 43 1 7 24.1 98.13     LegendNANA
12:00 Legend Double Dagger 15.1 1.3 39 36 2 24.1 98.04     LegendNANA
13:00 Legend Double Dagger 17.0 1.5 35 24 4 24.1 97.92     Clear
14:00 Legend Double Dagger 17.1 1.5 35 34 7 24.1 97.81     LegendNANA
15:00 Legend Double Dagger 17.5 3.1 38 35 14 24.1 97.73     LegendNANA
16:00 Legend Double Dagger 18.9 1.8 32 18 20 24.1 97.65     Clear
17:00 Legend Double Dagger 17.9 -0.4 29 18 21 24.1 97.61     LegendNANA
18:00 Legend Double Dagger 16.1 3.5 43 14 15 24.1 97.64     LegendNANA
19:00 Legend Double Dagger 15.4 1.1 38 14 16 24.1 97.63     Clear
20:00 Legend Double Dagger 9.6 -1.6 45 35 13 24.1 97.66     LegendNANA
21:00 Legend Double Dagger 9.5 -1.9 45 36 2 24.1 97.66     LegendNANA
22:00 Legend Double Dagger 6.9 0.4 63 11 5 24.1 97.64     Clear
23:00 Legend Double Dagger 6.5 -1.0 59 34 7 24.1 97.61     LegendNANA

Notes on Data Quality.

Legend

  • E = Estimated
  • M = Missing
  • NA = Not Available
  • ‡ = Partner data that is not subject to review by the National Climate Archives
Date modified: